Regional Weather Roundup
Issued by NWS

Home | Current Version | Previous Version | Graphics & Text | Print | Product List | Glossary On
Versions: 1 2 3 4 5 6 7 8 9 10 11 12 13 14 15 16 17 18 19 20 21 22 23 24 25 26 27 28 29 30 31 32 33 34 35 36 37 38 39 40 41 42 43 44 45 46 47 48 49 50
250
ASUS45 KBOU 191510
RWRCO

WEATHER ROUNDUP FOR COLORADO
NATIONAL WEATHER SERVICE DENVER/BOULDER CO
900 AM MDT SAT MAY 19 2018

NOTE: "FAIR" INDICATES FEW OR NO CLOUDS BELOW 12000 FEET WITH NO
SIGNIFICANT WEATHER AND/OR OBSTRUCTIONS TO VISIBILITY.

COZ001>005-013-030-031-191600-
...NORTHWEST COLORADO...

CITY           SKY/WX    TMP DP  RH WIND       PRES   REMARKS
CRAIG          CLOUDY    50  42  74 W8        30.07S
HAYDEN         FAIR      45  39  79 W3        30.10R
MEEKER         PTSUNNY   51  39  63 SW6       30.07S
RANGELY        FAIR      57  41  54 E10       30.04S
RABBIT EARS PA FOG       34  34 100 E8        30.19S VSB 1/2 WCI  27
STEAMBOAT SPGS FAIR      44  37  77 W5        30.07S
WALDEN         CLOUDY    46  36  66 CALM      30.14S
$$

COZ006>008-011-191600-
...WEST CENTRAL VALLEYS...

CITY           SKY/WX    TMP DP  RH WIND       PRES   REMARKS
GRAND JUNCTION FAIR      63  38  39 W3        29.96S
MONTROSE       FAIR      59  27  29 CALM      30.01F
EAGLE          FAIR      47  32  56 CALM      30.08S
RIFLE          FAIR      57  38  48 CALM      30.01F
DELTA          FAIR      62  27  27 E3        29.99S
NUCLA          NOT AVBL
$$

COZ017>023-064>068-191600-
...SOUTHWEST COLORADO...

CITY           SKY/WX    TMP DP  RH WIND       PRES   REMARKS
DURANGO        FAIR      55  23  28 E6        30.05R
CORTEZ         FAIR      60  24  25 N3        30.02S
PAGOSA SPRINGS FAIR      56  11  16 CALM      30.10R
TELLURIDE      FAIR      51  22  32 CALM      30.15F
WOLF CREEK PAS FAIR      41  12  30 S9G16     30.32R
$$

COZ009-010-012-014-032>034-037-058>063-191600-
...CENTRAL COLORADO...

CITY           SKY/WX    TMP DP  RH WIND       PRES   REMARKS
ASPEN          FAIR      53  23  31 N7        30.05F
BUENA VISTA    FAIR      49  37  63 E6        30.13S
COPPER MTN     FAIR      37  27  65 SE5       30.25S
BERTHOUD PASS  FAIR      30  18  59 W5        30.27R WCI  25
COTTONWOOD PAS PTSUNNY   50  39  66 SE3       30.19S
GUNNISON       FAIR      45  24  43 CALM      30.10F
GRANBY         FAIR      41  37  87 CALM      30.13S
KREMMLING      FAIR      50  37  62 CALM      30.12R
LEADVILLE      FAIR      39  33  79 CALM      30.17F
MONARCH PASS   FAIR      34  30  86 MISG      30.36S
SALIDA         CLOUDY    52  38  58 CALM      30.19S
SUNLIGHT       FAIR      41  27  56 SW3       30.23S
WILKERSON PASS FOG       32  32 100 SW6       30.26S VSB<1/4 WCI  26
$$

COZ069>075-191600-
...SAN LUIS VALLEY/SANGRE DE CRISTO MOUNTAINS...

CITY           SKY/WX    TMP DP  RH WIND       PRES   REMARKS
ALAMOSA        FAIR      57  34  41 E12G18    30.08S
DEL NORTE      FAIR      54  25  32 CALM      30.11S
LA VETA PASS   DRZL/FOG  39  37  93 NE10      30.32R VSB 1/2
SAGUACHE       NOT AVBL
$$

COZ035-036-038>040-191600-
...NORTHERN COLORADO FRONT RANGE...

CITY           SKY/WX    TMP DP  RH WIND       PRES   REMARKS
DENVER INTL AP LGT RAIN  49  46  90 N13       30.08R
AURORA         LGT RAIN  47  47 100 N13       30.09R
FRONT RANGE AP LGT RAIN  50  48  93 N12       30.09R
ERIE MUNI ARPT DRIZZLE   50  48  92 N8        30.13S
BOULDER MUN AP DRIZZLE   48  48 100 NE5       30.08S
CENTENNIAL     RAIN      47  46  97 N8        30.09S FOG
BROOMFIELD     CLOUDY    48  46  93 N9        30.10S
FORT COLLINS   LGT RAIN  50  47  89 N15       30.09R
LONGMONT       DRIZZLE   51  48  88 NE10      30.10S
$$

COZ041-046-047-076>085-087-088-191600-
...PIKES PEAK/PALMER DIVIDE AND SOUTHERN FOOTHILLS...

CITY           SKY/WX    TMP DP  RH WIND       PRES   REMARKS
COLO. SPRINGS  PTSUNNY   52  43  71 N14       30.08R
A. F. ACADEMY  CLOUDY    49  43  79 N15       30.09R
SCHRIEVER AFB  NOT AVBL
CHEYENNE MTN   PTSUNNY   49  42  75 NE6       30.05R
ELLICOTT         N/A    N/A N/A N/A N15       30.06R
FALCON         CLOUDY    49  42  78 N16G23    30.09S
FORT CARSON    CLOUDY    54  42  64 N7        30.06R
LIMON          CLOUDY    49  47  93 NW22      30.04S
MONUMENT HILL  CLOUDY    43  41  93 NW12      30.13R
CANON CITY     CLOUDY    55  50  82 E7        30.06R
WALSENBURG     CLOUDY    55  46  71 E5        30.09S
TRINIDAD       CLOUDY    55  48  77 N6        30.09S
$$

COZ042>045-048>051-090-091-191600-
...NORTHEAST COLORADO...

CITY           SKY/WX    TMP DP  RH WIND       PRES   REMARKS
GREELEY ARPT   LGT RAIN  48  45  89 N18G25    30.08R
AKRON          RAIN      45  44  97 NW28G43   29.98R FOG
BURLINGTON     FAIR      58  48  69 W28G41    29.96R
WRAY           CLOUDY    55  50  82 E13       29.88S
YUMA           DRIZZLE   50  41  71 NE7       29.89R
STERLING       RAIN      46  45  93 N18G25    29.99R
HOLYOKE        RAIN      52  48  87 NE26G32   29.95R
FORT MORGAN    LGT RAIN  46  43  90 N25       30.04R
$$

COZ086-089-092>099-191600-
...SOUTHEAST COLORADO...

CITY           SKY/WX    TMP DP  RH WIND       PRES   REMARKS
PUEBLO         CLOUDY    58  47  66 SE8       30.04R
LA JUNTA       PTSUNNY   58  51  78 N7        30.03R
LAMAR          CLOUDY    58  51  78 NW5       30.00R
SPRINGFIELD      N/A     54  54 100 N12       30.04R
$$




USA.gov is the U.S. government's official web portal to all federal, state and local government web resources and services.